This is the latest recevied weather packets stored in our database for station/object N8DMH-13. If no packets are shown the sender has not sent any weather packets the latest 10 day(s).
| Time | Temp. | Humidity | Pressure | Rain* | Wind** | Luminosity | Snow |
|---|---|---|---|---|---|---|---|
| 1778006287 | 11.67° C | 40% | 1006.7 hPa | 0 mm | - | - | - |
| 1778005987 | 12.22° C | 39% | 1006.6 hPa | 0 mm | - | - | - |
| 1778005687 | 12.22° C | 39% | 1006.6 hPa | 0 mm | - | - | - |
| 1778005358 | 11.67° C | 39% | 1006.6 hPa | 0 mm | - | - | - |
| 1778005057 | 11.67° C | 40% | 1006.6 hPa | 0 mm | - | - | - |
| 1778004726 | 11.67° C | 39% | 1006.5 hPa | 0 mm | - | - | - |
| 1778004396 | 11.67° C | 39% | 1006.3 hPa | 0 mm | - | - | - |
| 1778004096 | 11.67° C | 38% | 1006.2 hPa | 0 mm | - | - | - |
| 1778003796 | 11.67° C | 38% | 1006.2 hPa | 0 mm | - | - | - |
| 1778003466 | 11.67° C | 37% | 1006.2 hPa | 0 mm | - | - | - |
| 1778003166 | 11.67° C | 38% | 1006.1 hPa | 0 mm | - | - | - |
| 1778002866 | 11.67° C | 38% | 1006 hPa | 0 mm | - | - | - |
| 1778002536 | 11.67° C | 36% | 1005.9 hPa | 0 mm | - | - | - |
| 1778002235 | 11.11° C | 38% | 1005.9 hPa | 0 mm | - | - | - |
| 1778001905 | 11.67° C | 37% | 1005.8 hPa | 0 mm | - | - | - |
| 1778001575 | 11.67° C | 37% | 1006 hPa | 0 mm | - | - | - |
| 1778001275 | 11.67° C | 38% | 1005.7 hPa | 0 mm | - | - | - |
| 1778000945 | 11.67° C | 38% | 1005.8 hPa | 0 mm | - | - | - |
| 1778000645 | 11.11° C | 35% | 1005.7 hPa | 0 mm | - | - | - |
| 1778000345 | 11.11° C | 34% | 1005.7 hPa | 0 mm | - | - | - |
| 1778000015 | 11.67° C | 38% | 1005.9 hPa | 0 mm | - | - | - |
| 1777999715 | 11.11° C | 37% | 1005.9 hPa | 0 mm | - | - | - |
| 1777999415 | 11.11° C | 36% | 1006 hPa | 0 mm | - | - | - |
| 1777999114 | 11.11° C | 36% | 1005.9 hPa | 0 mm | - | - | - |
| 1777998814 | 11.11° C | 38% | 1006 hPa | 0 mm | - | - | - |
* Rain latest hour (hover to see other rain measurements)
** Current wind speed in m/s (hover to see current wind gust speed)